DW9924 Weather Reports


Display with metric or nautical units.
time (UTC)temp
F
wind
direction
speed
MPH
gust
MPH
rain 1hr
in
rain 24hr
in
rain mn
in
humidity
%
barometer
mb
20260831043406 72 12 2.0 3.0 0.00 0.00 0.00 86 1015.4
20260831041906 72 31 2.0 3.0 0.00 0.00 0.00 87 1015.3
20260831041406 72 5 1.0 3.0 0.00 0.00 0.00 87 1015.3
20260831040907 72 21 2.0 3.0 0.00 0.00 0.00 87 1015.3
20260831040406 72 23 1.0 3.0 0.00 0.00 0.00 87 1015.3
20260831034906 72 27 1.0 3.0 0.00 0.00 0.00 87 1015.3
20260831033906 73 21 2.0 3.0 0.00 0.00 0.00 87 1015.4
20260831033407 72 38 2.0 3.0 0.00 0.00 0.00 87 1015.4
20260831031406 73 30 1.0 3.0 0.00 0.00 0.00 87 1015.6
20260831030906 73 32 2.0 3.0 0.00 0.00 0.00 87 1015.6
20260831030406 73 36 2.0 3.0 0.00 0.00 0.00 87 1015.6
20260831024906 73 12 2.0 3.0 0.00 0.00 0.00 87 1015.6
20260831024406 73 14 2.0 3.0 0.00 0.00 0.00 87 1015.6
20260831023906 73 18 1.0 3.0 0.00 0.00 0.00 87 1015.5
20260831021906 73 29 2.0 3.0 0.00 0.00 0.00 87 1015.6
20260831021406 73 33 1.0 3.0 0.00 0.00 0.00 86 1015.6
20260831020906 73 33 2.0 3.0 0.00 0.00 0.00 86 1015.6
20260831020406 73 33 1.0 3.0 0.00 0.00 0.00 86 1015.6
20260831014906 73 33 1.0 3.0 0.00 0.00 0.00 86 1015.8
20260831013907 73 33 2.0 3.0 0.00 0.00 0.00 86 1015.8
20260831013414 73 34 1.0 3.0 0.00 0.00 0.00 86 1015.8
20260831011406 73 15 2.0 3.0 0.00 0.00 0.00 86 1015.8
20260831010906 73 8 2.0 3.0 0.00 0.00 0.00 86 1015.7
20260831010406 73 34 1.0 2.0 0.00 0.00 0.00 86 1015.8
20260831004907 73 28 1.0 3.0 0.00 0.00 0.00 86 1015.9
20260831004421 73 25 2.0 3.0 0.00 0.00 0.00 86 1015.9
20260831003907 73 30 1.0 3.0 0.00 0.00 0.00 86 1015.9
20260831003406 73 28 1.0 3.0 0.00 0.00 0.00 85 1015.9
20260831001906 73 31 2.0 3.0 0.00 0.00 0.00 86 1015.9
20260831001405 73 28 1.0 3.0 0.00 0.00 0.00 85 1015.9
20260831000907 73 24 1.0 3.0 0.00 0.00 0.00 85 1015.8
20260831000406 73 22 1.0 2.0 0.00 0.00 0.00 85 1015.9
20260830234905 73 33 1.0 2.0 0.00 0.00 0.00 85 1015.9
20260830234406 73 40 2.0 3.0 0.00 0.00 0.00 85 1015.8
20260830233906 73 45 2.0 3.0 0.00 0.00 0.00 85 1015.8
20260830233406 73 32 1.0 3.0 0.00 0.00 0.00 85 1015.8
20260830231906 73 31 1.0 2.0 0.00 0.00 0.00 85 1015.9
20260830230906 73 32 1.0 2.0 0.00 0.00 0.00 85 1015.9
20260830224408 73 38 2.0 3.0 0.00 0.00 0.00 84 1015.9
20260830223906 74 26 1.0 2.0 0.00 0.00 0.00 84 1015.9
20260830223407 74 26 1.0 2.0 0.00 0.00 0.00 84 1016.0
20260830221906 74 44 1.0 3.0 0.00 0.00 0.00 83 1015.9
20260830220907 74 16 1.0 2.0 0.00 0.00 0.00 83 1015.8
20260830220405 74 28 2.0 3.0 0.00 0.00 0.00 83 1015.9
20260830214906 74 30 2.0 3.0 0.00 0.00 0.00 83 1015.9
20260830214406 74 25 1.0 3.0 0.00 0.00 0.00 83 1015.9
20260830213906 74 24 2.0 3.0 0.00 0.00 0.00 83 1015.8
20260830213406 74 27 2.0 3.0 0.00 0.00 0.00 83 1015.7
20260830210913 74 5 1.0 2.0 0.00 0.00 0.00 82 1015.7
20260830210405 74 19 2.0 3.0 0.00 0.00 0.00 82 1015.6
20260830204405 75 19 1.0 2.0 0.00 0.00 0.00 82 1015.5
20260830203906 75 22 1.0 2.0 0.00 0.00 0.00 82 1015.6
20260830203406 75 32 2.0 3.0 0.00 0.00 0.00 82 1015.5
20260830201406 75 33 1.0 2.0 0.00 0.00 0.00 82 1015.5
20260830200906 75 0 1.0 2.0 0.00 0.00 0.00 82 1015.5
20260830200408 75 16 1.0 3.0 0.00 0.00 0.00 81 1015.5
20260830194906 75 28 1.0 3.0 0.00 0.00 0.00 81 1015.4
20260830194405 75 28 1.0 3.0 0.00 0.00 0.00 81 1015.3
20260830193916 75 30 1.0 3.0 0.00 0.00 0.00 80 1015.4
20260830191409 76 19 1.0 2.0 0.00 0.00 0.00 79 1015.1
20260830190905 76 20 1.0 2.0 0.00 0.00 0.00 78 1015.0
20260830190413 76 5 0.0 2.0 0.00 0.00 0.00 78 1015.0
20260830184906 77 26 1.0 2.0 0.00 0.00 0.00 76 1014.9
20260830184405 77 355 1.0 2.0 0.00 0.00 0.00 76 1014.9
20260830181906 78 355 0.0 2.0 0.00 0.00 0.00 74 1014.7
20260830181405 78 355 0.0 0.0 0.00 0.00 0.00 74 1014.5
20260830180905 78 355 0.0 1.0 0.00 0.00 0.00 74 1014.5
20260830180405 79 355 0.0 0.0 0.00 0.00 0.00 73 1014.5
20260830174905 79 355 0.0 1.0 0.00 0.00 0.00 72 1014.5
20260830173905 80 300 0.0 1.0 0.00 0.00 0.00 72 1014.5
20260830173405 80 296 1.0 2.0 0.00 0.00 0.00 72 1014.5
20260830171905 80 237 1.0 3.0 0.00 0.00 0.00 71 1014.4
20260830164913 80 236 1.0 3.0 0.00 0.00 0.00 70 1014.5
20260830164420 80 207 1.0 3.0 0.00 0.00 0.00 69 1014.6
20260830163905 81 255 1.0 3.0 0.00 0.00 0.00 69 1014.5
20260830161405 80 210 1.0 2.0 0.00 0.00 0.00 69 1014.3
20260830160905 81 198 1.0 3.0 0.00 0.00 0.00 69 1014.3
20260830154905 81 232 1.0 3.0 0.00 0.00 0.00 67 1014.5
20260830154404 81 234 1.0 3.0 0.00 0.00 0.00 68 1014.6
20260830151904 82 220 1.0 3.0 0.00 0.00 0.00 69 1014.7
20260830151405 82 222 2.0 3.0 0.00 0.00 0.00 68 1014.8
20260830150404 82 194 2.0 3.0 0.00 0.00 0.00 68 1014.9
20260830144905 82 211 2.0 5.0 0.00 0.00 0.00 68 1014.8
20260830144406 82 222 2.0 5.0 0.00 0.00 0.00 69 1014.9
20260830143905 82 167 1.0 2.0 0.00 0.00 0.00 69 1014.9
20260830141905 81 226 2.0 5.0 0.00 0.00 0.00 68 1014.8
20260830141406 81 234 2.0 5.0 0.00 0.00 0.00 70 1015.0
20260830140904 82 227 3.0 6.0 0.00 0.00 0.00 69 1015.0
20260830140405 83 233 2.0 6.0 0.00 0.00 0.00 67 1015.1
20260830134405 83 222 2.0 3.0 0.00 0.00 0.00 69 1015.2
20260830133905 82 199 3.0 5.0 0.00 0.00 0.00 69 1015.3
20260830133405 82 225 2.0 7.0 0.00 0.00 0.00 68 1015.2
20260830131405 84 192 2.0 6.0 0.00 0.00 0.00 67 1015.4
20260830130905 84 229 2.0 6.0 0.00 0.00 0.00 67 1015.5
20260830130405 84 157 1.0 5.0 0.00 0.00 0.00 67 1015.5
20260830124904 83 161 2.0 3.0 0.00 0.00 0.00 68 1015.6
20260830124404 82 197 2.0 5.0 0.00 0.00 0.00 68 1015.6
20260830123405 82 221 2.0 6.0 0.00 0.00 0.00 67 1015.6
20260830121405 84 186 1.0 3.0 0.00 0.00 0.00 64 1015.7
20260830120407 83 180 2.0 6.0 0.00 0.00 0.00 65 1015.7
20260830113904 83 225 1.0 3.0 0.00 0.00 0.00 65 1015.8
20260830113405 82 164 2.0 3.0 0.00 0.00 0.00 67 1015.8
20260830111904 83 190 1.0 3.0 0.00 0.00 0.00 67 1015.9
20260830111405 82 188 1.0 3.0 0.00 0.00 0.00 68 1015.9
20260830110405 82 188 2.0 5.0 0.00 0.00 0.00 67 1015.9
20260830104904 83 230 2.0 3.0 0.00 0.00 0.00 66 1015.9
20260830104404 83 169 0.0 6.0 0.00 0.00 0.00 68 1015.9
20260830103404 82 210 1.0 6.0 0.00 0.00 0.00 68 1015.8
20260830101404 82 232 2.0 3.0 0.00 0.00 0.00 67 1016.0
20260830100404 82 253 1.0 3.0 0.00 0.00 0.00 68 1016.1
20260830094904 82 231 1.0 3.0 0.00 0.00 0.00 68 1016.2
20260830093904 81 165 1.0 3.0 0.00 0.00 0.00 69 1016.2
20260830093408 80 251 1.0 3.0 0.00 0.00 0.00 69 1016.0
20260830091909 80 245 2.0 5.0 0.00 0.00 0.00 70 1016.3
20260830091407 80 212 1.0 3.0 0.00 0.00 0.00 70 1016.2
20260830090410 80 220 1.0 3.0 0.00 0.00 0.00 71 1016.2
20260830084907 79 219 1.0 3.0 0.00 0.00 0.00 71 1016.2
20260830081408 79 261 1.0 3.0 0.00 0.00 0.00 72 1016.0
20260830080407 78 192 0.0 2.0 0.00 0.00 0.00 71 1016.0
20260830074908 79 192 0.0 1.0 0.00 0.00 0.00 69 1016.0
20260830074408 80 192 0.0 1.0 0.00 0.00 0.00 70 1015.9
20260830073908 80 195 0.0 2.0 0.00 0.00 0.00 71 1015.9
20260830073408 79 250 1.0 2.0 0.00 0.00 0.00 71 1015.8
20260830071907 78 267 0.0 0.0 0.00 0.00 0.00 73 1015.6
20260830070907 77 267 0.0 1.0 0.00 0.00 0.00 75 1015.6
20260830070408 76 5 0.0 1.0 0.00 0.00 0.00 75 1015.6
20260830064907 75 5 0.0 1.0 0.00 0.00 0.00 77 1015.5
20260830064408 75 5 1.0 2.0 0.00 0.00 0.00 78 1015.5
20260830063907 74 10 1.0 2.0 0.00 0.00 0.00 78 1015.5
20260830063407 73 355 1.0 3.0 0.00 0.00 0.00 79 1015.5
20260830061907 73 8 2.0 3.0 0.00 0.00 0.00 80 1015.5
20260830061408 73 1 2.0 3.0 0.00 0.00 0.00 80 1015.6
20260830060907 73 3 2.0 3.0 0.00 0.00 0.00 80 1015.5
20260830060408 73 359 2.0 3.0 0.00 0.00 0.00 80 1015.5
20260830053907 73 34 2.0 3.0 0.00 0.00 0.00 79 1015.4
20260830051407 73 56 2.0 3.0 0.00 0.00 0.00 76 1015.2
20260830050407 73 35 2.0 3.0 0.00 0.00 0.00 75 1015.2
20260830044907 73 43 2.0 3.0 0.00 0.00 0.00 74 1015.1
20260830044407 73 42 2.0 3.0 0.00 0.00 0.00 73 1015.2
20260830043907 73 26 2.0 3.0 0.00 0.00 0.00 72 1015.1